Time,TemperatureF,DewpointF,PressureIn,WindDirection,WindDirectionDegrees,WindSpeedMPH,WindSpeedGustMPH,Humidity,HourlyPrecipIn,Conditions,Clouds,dailyrainin,SoftwareType,DateUTC
2013-06-10 00:02:00,70.0,30.0,-100.00,WSW,240,12.0,15.0,22,-99.99,,,-99.99,,2013-06-10 06:02:00,
2013-06-10 00:11:00,67.0,29.0,-100.00,WSW,240,13.0,15.0,23,-99.99,,,-99.99,,2013-06-10 06:11:00,
2013-06-10 00:22:00,69.0,29.0,-100.00,WSW,245,13.0,15.0,22,-99.99,,,-99.99,,2013-06-10 06:22:00,
2013-06-10 00:32:00,67.0,29.0,-100.00,WSW,240,14.0,16.0,23,-99.99,,,-99.99,,2013-06-10 06:32:00,
2013-06-10 00:41:00,69.0,30.0,-100.00,WSW,240,13.0,17.0,23,-99.99,,,-99.99,,2013-06-10 06:41:00,
2013-06-10 00:52:00,65.0,28.0,-100.00,WSW,240,13.0,17.0,24,-99.99,,,-99.99,,2013-06-10 06:52:00,
2013-06-10 01:02:00,65.0,28.0,-100.00,SW,235,14.0,17.0,25,-99.99,,,-99.99,,2013-06-10 07:02:00,
2013-06-10 01:11:00,65.0,28.0,-100.00,WSW,240,13.0,16.0,24,-99.99,,,-99.99,,2013-06-10 07:11:00,
2013-06-10 01:21:00,67.0,29.0,-100.00,WSW,245,14.0,18.0,24,-99.99,,,-99.99,,2013-06-10 07:21:00,
2013-06-10 01:32:00,66.0,29.0,-100.00,WSW,245,12.0,17.0,24,-99.99,,,-99.99,,2013-06-10 07:32:00,
2013-06-10 01:42:00,68.0,29.0,-100.00,WSW,245,10.0,16.0,23,-99.99,,,-99.99,,2013-06-10 07:42:00,
2013-06-10 01:52:00,65.0,28.0,-100.00,WSW,240,12.0,15.0,24,-99.99,,,-99.99,,2013-06-10 07:52:00,
2013-06-10 02:02:00,65.0,28.0,-100.00,SW,225,14.0,15.0,25,-99.99,,,-99.99,,2013-06-10 08:02:00,
2013-06-10 02:12:00,64.0,28.0,-100.00,SW,225,13.0,15.0,25,-99.99,,,-99.99,,2013-06-10 08:12:00,
2013-06-10 02:21:00,64.0,28.0,-100.00,SW,230,14.0,16.0,25,-99.99,,,-99.99,,2013-06-10 08:21:00,
2013-06-10 02:32:00,64.0,28.0,-100.00,SW,230,16.0,18.0,25,-99.99,,,-99.99,,2013-06-10 08:32:00,
2013-06-10 02:41:00,64.0,28.0,-100.00,SW,225,16.0,18.0,25,-99.99,,,-99.99,,2013-06-10 08:41:00,
2013-06-10 02:52:00,64.0,28.0,-100.00,SW,225,15.0,17.0,25,-99.99,,,-99.99,,2013-06-10 08:52:00,
2013-06-10 03:02:00,63.0,28.0,-100.00,SW,220,12.0,16.0,25,-99.99,,,-99.99,,2013-06-10 09:02:00,
2013-06-10 03:11:00,65.0,28.0,-100.00,SW,220,13.0,17.0,25,-99.99,,,-99.99,,2013-06-10 09:11:00,
2013-06-10 03:21:00,65.0,29.0,-100.00,SW,225,16.0,20.0,25,-99.99,,,-99.99,,2013-06-10 09:21:00,
2013-06-10 03:32:00,65.0,29.0,-100.00,SW,225,15.0,19.0,25,-99.99,,,-99.99,,2013-06-10 09:32:00,
2013-06-10 03:42:00,67.0,29.0,-100.00,SW,235,16.0,19.0,23,-99.99,,,-99.99,,2013-06-10 09:42:00,
2013-06-10 03:53:00,67.0,29.0,-100.00,SW,235,16.0,18.0,23,-99.99,,,-99.99,,2013-06-10 09:53:00,
2013-06-10 04:02:00,67.0,29.0,-100.00,SW,230,16.0,17.0,23,-99.99,,,-99.99,,2013-06-10 10:02:00,
2013-06-10 04:12:00,66.0,28.0,-100.00,SW,225,12.0,18.0,23,-99.99,,,-99.99,,2013-06-10 10:12:00,
2013-06-10 04:22:00,65.0,27.0,-100.00,SW,220,13.0,15.0,24,-99.99,,,-99.99,,2013-06-10 10:22:00,
2013-06-10 04:33:00,62.0,27.0,-100.00,SSW,210,12.0,15.0,25,-99.99,,,-99.99,,2013-06-10 10:33:00,
2013-06-10 04:42:00,63.0,27.0,-100.00,SW,215,12.0,14.0,25,-99.99,,,-99.99,,2013-06-10 10:42:00,
2013-06-10 04:52:00,64.0,28.0,-100.00,SW,225,20.0,24.0,25,-99.99,,,-99.99,,2013-06-10 10:52:00,
2013-06-10 05:02:00,64.0,27.0,-100.00,SW,225,21.0,24.0,25,-99.99,,,-99.99,,2013-06-10 11:02:00,
2013-06-10 05:11:00,63.0,27.0,-100.00,SW,225,17.0,24.0,25,-99.99,,,-99.99,,2013-06-10 11:11:00,
2013-06-10 05:22:00,63.0,27.0,-100.00,SW,220,20.0,25.0,25,-99.99,,,-99.99,,2013-06-10 11:22:00,
2013-06-10 05:32:00,64.0,27.0,-100.00,SW,220,18.0,25.0,25,-99.99,,,-99.99,,2013-06-10 11:32:00,
2013-06-10 05:42:00,64.0,28.0,-100.00,SW,215,20.0,25.0,25,-99.99,,,-99.99,,2013-06-10 11:42:00,
2013-06-10 05:52:00,64.0,27.0,-100.00,SW,220,17.0,23.0,24,-99.99,,,-99.99,,2013-06-10 11:52:00,
2013-06-10 06:02:00,63.0,27.0,-100.00,SW,225,17.0,21.0,25,-99.99,,,-99.99,,2013-06-10 12:02:00,
2013-06-10 06:12:00,62.0,26.0,-100.00,SW,225,16.0,21.0,25,-99.99,,,-99.99,,2013-06-10 12:12:00,
2013-06-10 06:22:00,62.0,27.0,-100.00,SW,220,16.0,19.0,25,-99.99,,,-99.99,,2013-06-10 12:22:00,
2013-06-10 06:32:00,61.0,26.0,-100.00,SSW,200,12.0,17.0,26,-99.99,,,-99.99,,2013-06-10 12:32:00,
2013-06-10 06:42:00,59.0,26.0,-100.00,ESE,115,8.0,11.0,28,-99.99,,,-99.99,,2013-06-10 12:42:00,
2013-06-10 06:52:00,60.0,27.0,-100.00,East,80,7.0,10.0,27,-99.99,,,-99.99,,2013-06-10 12:52:00,
2013-06-10 07:02:00,59.0,26.0,-100.00,SE,145,7.0,10.0,28,-99.99,,,-99.99,,2013-06-10 13:02:00,
2013-06-10 07:11:00,59.0,26.0,-100.00,SSE,165,9.0,12.0,28,-99.99,,,-99.99,,2013-06-10 13:11:00,
2013-06-10 07:21:00,59.0,27.0,-100.00,South,180,9.0,11.0,29,-99.99,,,-99.99,,2013-06-10 13:21:00,
2013-06-10 07:32:00,60.0,28.0,-100.00,South,180,11.0,13.0,29,-99.99,,,-99.99,,2013-06-10 13:32:00,
2013-06-10 07:41:00,60.0,28.0,-100.00,SSW,210,12.0,16.0,29,-99.99,,,-99.99,,2013-06-10 13:41:00,
2013-06-10 07:52:00,61.0,29.0,-100.00,SSW,210,11.0,14.0,29,-99.99,,,-99.99,,2013-06-10 13:52:00,
2013-06-10 08:02:00,62.0,30.0,-100.00,SSW,205,10.0,11.0,29,-99.99,,,-99.99,,2013-06-10 14:02:00,
2013-06-10 08:11:00,65.0,32.0,-100.00,SW,220,10.0,12.0,29,-99.99,,,-99.99,,2013-06-10 14:11:00,
2013-06-10 08:22:00,66.0,32.0,-100.00,South,190,13.0,15.0,28,-99.99,,,-99.99,,2013-06-10 14:22:00,
2013-06-10 08:32:00,69.0,34.0,-100.00,SW,215,11.0,14.0,27,-99.99,,,-99.99,,2013-06-10 14:32:00,
2013-06-10 08:42:00,72.0,35.0,-100.00,SW,215,11.0,14.0,25,-99.99,,,-99.99,,2013-06-10 14:42:00,
2013-06-10 08:52:00,73.0,35.0,-100.00,SW,220,14.0,17.0,24,-99.99,,,-99.99,,2013-06-10 14:52:00,
2013-06-10 09:02:00,74.0,35.0,-100.00,SW,225,14.0,19.0,23,-99.99,,,-99.99,,2013-06-10 15:02:00,
2013-06-10 09:11:00,75.0,35.0,-100.00,SW,225,19.0,23.0,22,-99.99,,,-99.99,,2013-06-10 15:11:00,
2013-06-10 09:21:00,76.0,34.0,-100.00,SW,225,18.0,27.0,22,-99.99,,,-99.99,,2013-06-10 15:21:00,
2013-06-10 09:32:00,76.0,34.0,-100.00,SW,230,17.0,24.0,21,-99.99,,,-99.99,,2013-06-10 15:32:00,
2013-06-10 09:43:00,77.0,34.0,-100.00,SW,230,15.0,22.0,21,-99.99,,,-99.99,,2013-06-10 15:43:00,
2013-06-10 09:53:00,76.0,33.0,-100.00,SW,235,21.0,24.0,21,-99.99,,,-99.99,,2013-06-10 15:53:00,
2013-06-10 10:02:00,76.0,34.0,-100.00,SW,235,21.0,27.0,21,-99.99,,,-99.99,,2013-06-10 16:02:00,
2013-06-10 10:12:00,76.0,34.0,-100.00,WSW,240,20.0,27.0,21,-99.99,,,-99.99,,2013-06-10 16:12:00,
2013-06-10 10:22:00,78.0,35.0,-100.00,SW,235,17.0,24.0,21,-99.99,,,-99.99,,2013-06-10 16:22:00,
2013-06-10 10:33:00,79.0,35.0,-100.00,SW,235,17.0,24.0,20,-99.99,,,-99.99,,2013-06-10 16:33:00,
2013-06-10 10:42:00,79.0,36.0,-100.00,WSW,250,17.0,26.0,20,-99.99,,,-99.99,,2013-06-10 16:42:00,
2013-06-10 10:52:00,80.0,35.0,-100.00,WSW,245,19.0,27.0,20,-99.99,,,-99.99,,2013-06-10 16:52:00,
2013-06-10 11:03:00,80.0,35.0,-100.00,West,260,22.0,33.0,19,-99.99,,,-99.99,,2013-06-10 17:03:00,
2013-06-10 11:14:00,80.0,35.0,-100.00,WSW,255,24.0,32.0,19,-99.99,,,-99.99,,2013-06-10 17:14:00,
2013-06-10 11:26:00,81.0,35.0,-100.00,WSW,245,21.0,-999.0,19,-99.99,,,-99.99,,2013-06-10 17:26:00,
2013-06-10 11:38:00,82.0,36.0,-100.00,WSW,240,20.0,27.0,19,-99.99,,,-99.99,,2013-06-10 17:38:00,
2013-06-10 11:48:00,83.0,36.0,-100.00,West,270,20.0,26.0,18,-99.99,,,-99.99,,2013-06-10 17:48:00,
2013-06-10 11:57:00,83.0,36.0,-100.00,WSW,255,17.0,27.0,18,-99.99,,,-99.99,,2013-06-10 17:57:00,
2013-06-10 12:07:00,84.0,36.0,-100.00,WSW,255,21.0,28.0,18,-99.99,,,-99.99,,2013-06-10 18:07:00,
2013-06-10 12:14:00,85.0,36.0,-100.00,West,265,19.0,30.0,17,-99.99,,,-99.99,,2013-06-10 18:14:00,
2013-06-10 12:24:00,85.0,36.0,-100.00,West,265,23.0,32.0,17,-99.99,,,-99.99,,2013-06-10 18:24:00,
2013-06-10 12:34:00,86.0,35.0,-100.00,WNW,285,19.0,32.0,16,-99.99,,,-99.99,,2013-06-10 18:34:00,
2013-06-10 12:47:00,86.0,35.0,-100.00,West,280,27.0,34.0,16,-99.99,,,-99.99,,2013-06-10 18:47:00,
2013-06-10 12:55:00,85.0,34.0,-100.00,WNW,285,21.0,35.0,16,-99.99,,,-99.99,,2013-06-10 18:55:00,
2013-06-10 13:02:00,87.0,35.0,-100.00,West,275,24.0,31.0,16,-99.99,,,-99.99,,2013-06-10 19:02:00,
2013-06-10 13:22:00,88.0,35.0,-100.00,WSW,255,28.0,-999.0,15,-99.99,,,-99.99,,2013-06-10 19:22:00,
2013-06-10 13:32:00,87.0,33.0,-100.00,West,265,29.0,39.0,14,-99.99,,,-99.99,,2013-06-10 19:32:00,
2013-06-10 13:42:00,86.0,33.0,-100.00,WSW,245,31.0,40.0,14,-99.99,,,-99.99,,2013-06-10 19:42:00,
2013-06-10 13:52:00,86.0,32.0,-100.00,WSW,250,24.0,39.0,14,-99.99,,,-99.99,,2013-06-10 19:52:00,
2013-06-10 14:02:00,88.0,33.0,-100.00,WSW,250,26.0,38.0,14,-99.99,,,-99.99,,2013-06-10 20:02:00,
2013-06-10 14:11:00,86.0,31.0,-100.00,West,270,21.0,34.0,14,-99.99,,,-99.99,,2013-06-10 20:11:00,
2013-06-10 14:21:00,87.0,32.0,-100.00,West,265,26.0,35.0,14,-99.99,,,-99.99,,2013-06-10 20:21:00,
2013-06-10 14:32:00,86.0,31.0,-100.00,West,280,21.0,35.0,14,-99.99,,,-99.99,,2013-06-10 20:32:00,
2013-06-10 14:42:00,86.0,30.0,-100.00,West,270,26.0,34.0,13,-99.99,,,-99.99,,2013-06-10 20:42:00,
2013-06-10 14:52:00,87.0,30.0,-100.00,WSW,250,30.0,37.0,12,-99.99,,,-99.99,,2013-06-10 20:52:00,
2013-06-10 15:02:00,89.0,31.0,-100.00,West,260,21.0,40.0,12,-99.99,,,-99.99,,2013-06-10 21:02:00,
2013-06-10 15:11:00,89.0,31.0,-100.00,WSW,255,27.0,35.0,12,-99.99,,,-99.99,,2013-06-10 21:11:00,
2013-06-10 15:22:00,89.0,30.0,-100.00,WNW,295,30.0,39.0,12,-99.99,,,-99.99,,2013-06-10 21:22:00,
2013-06-10 15:33:00,89.0,31.0,-100.00,WNW,290,23.0,38.0,12,-99.99,,,-99.99,,2013-06-10 21:33:00,
2013-06-10 15:42:00,87.0,30.0,-100.00,WSW,250,19.0,39.0,12,-99.99,,,-99.99,,2013-06-10 21:42:00,
2013-06-10 15:53:00,87.0,30.0,-100.00,West,260,22.0,34.0,12,-99.99,,,-99.99,,2013-06-10 21:53:00,
2013-06-10 16:02:00,86.0,29.0,-100.00,WSW,245,23.0,35.0,12,-99.99,,,-99.99,,2013-06-10 22:02:00,
2013-06-10 16:12:00,85.0,30.0,-100.00,WSW,255,23.0,39.0,13,-99.99,,,-99.99,,2013-06-10 22:12:00,
2013-06-10 16:22:00,85.0,29.0,-100.00,West,275,21.0,38.0,13,-99.99,,,-99.99,,2013-06-10 22:22:00,
2013-06-10 16:33:00,86.0,30.0,-100.00,West,280,24.0,34.0,13,-99.99,,,-99.99,,2013-06-10 22:33:00,
2013-06-10 16:42:00,87.0,31.0,-100.00,WSW,240,18.0,27.0,13,-99.99,,,-99.99,,2013-06-10 22:42:00,
2013-06-10 16:52:00,84.0,30.0,-100.00,SSE,165,9.0,27.0,14,-99.99,,,-99.99,,2013-06-10 22:52:00,
2013-06-10 17:02:00,83.0,29.0,-100.00,SW,215,19.0,27.0,14,-99.99,,,-99.99,,2013-06-10 23:02:00,
2013-06-10 17:11:00,83.0,30.0,-100.00,SW,215,14.0,26.0,14,-99.99,,,-99.99,,2013-06-10 23:11:00,
2013-06-10 17:22:00,83.0,30.0,-100.00,SSE,165,17.0,25.0,14,-99.99,,,-99.99,,2013-06-10 23:22:00,
2013-06-10 17:32:00,85.0,32.0,-100.00,SSW,200,17.0,24.0,14,-99.99,,,-99.99,,2013-06-10 23:32:00,
2013-06-10 17:42:00,84.0,31.0,-100.00,SSW,205,16.0,22.0,14,-99.99,,,-99.99,,2013-06-10 23:42:00,
2013-06-10 17:52:00,85.0,31.0,-100.00,South,185,13.0,20.0,14,-99.99,,,-99.99,,2013-06-10 23:52:00,
2013-06-10 18:02:00,82.0,29.0,-100.00,SW,230,26.0,30.0,14,-99.99,,,-99.99,,2013-06-11 00:02:00,
2013-06-10 18:11:00,82.0,30.0,-100.00,SSW,210,21.0,25.0,15,-99.99,,,-99.99,,2013-06-11 00:11:00,
2013-06-10 18:21:00,82.0,29.0,-100.00,SSW,205,22.0,29.0,14,-99.99,,,-99.99,,2013-06-11 00:21:00,
2013-06-10 18:32:00,83.0,29.0,-100.00,North,-999,-999.0,-999.0,14,-99.99,,,-99.99,,2013-06-11 00:32:00,
2013-06-10 18:41:00,81.0,28.0,-100.00,SW,220,37.0,45.0,14,-99.99,,,-99.99,,2013-06-11 00:41:00,
2013-06-10 18:51:00,79.0,28.0,-100.00,WSW,245,40.0,52.0,15,-99.99,,,-99.99,,2013-06-11 00:51:00,
2013-06-10 19:02:00,77.0,29.0,-100.00,SW,220,43.0,55.0,16,-99.99,,,-99.99,,2013-06-11 01:02:00,
2013-06-10 19:12:00,78.0,29.0,-100.00,South,175,6.0,40.0,16,-99.99,,,-99.99,,2013-06-11 01:12:00,
2013-06-10 19:21:00,77.0,29.0,-100.00,South,180,12.0,24.0,16,-99.99,,,-99.99,,2013-06-11 01:21:00,
2013-06-10 19:32:00,78.0,30.0,-100.00,WSW,240,14.0,18.0,17,-99.99,,,-99.99,,2013-06-11 01:32:00,
2013-06-10 19:42:00,78.0,29.0,-100.00,WSW,245,7.0,13.0,16,-99.99,,,-99.99,,2013-06-11 01:42:00,
2013-06-10 19:52:00,78.0,29.0,-100.00,WSW,245,12.0,17.0,16,-99.99,,,-99.99,,2013-06-11 01:52:00,
2013-06-10 20:02:00,78.0,29.0,-100.00,WSW,245,17.0,24.0,16,-99.99,,,-99.99,,2013-06-11 02:02:00,
2013-06-10 20:11:00,79.0,29.0,-100.00,West,260,19.0,27.0,16,-99.99,,,-99.99,,2013-06-11 02:11:00,
2013-06-10 20:21:00,79.0,29.0,-100.00,SW,230,13.0,24.0,16,-99.99,,,-99.99,,2013-06-11 02:21:00,
2013-06-10 20:31:00,78.0,28.0,-100.00,SW,220,11.0,15.0,16,-99.99,,,-99.99,,2013-06-11 02:31:00,
2013-06-10 20:41:00,76.0,28.0,-100.00,SW,230,15.0,19.0,16,-99.99,,,-99.99,,2013-06-11 02:41:00,
2013-06-10 20:52:00,77.0,27.0,-100.00,WSW,245,19.0,24.0,16,-99.99,,,-99.99,,2013-06-11 02:52:00,
2013-06-10 21:02:00,76.0,27.0,-100.00,WSW,240,14.0,22.0,16,-99.99,,,-99.99,,2013-06-11 03:02:00,
2013-06-10 21:11:00,71.0,26.0,-100.00,SW,220,12.0,14.0,18,-99.99,,,-99.99,,2013-06-11 03:11:00,
2013-06-10 21:21:00,72.0,26.0,-100.00,SW,235,14.0,17.0,18,-99.99,,,-99.99,,2013-06-11 03:21:00,
2013-06-10 21:32:00,73.0,27.0,-100.00,WSW,240,15.0,17.0,18,-99.99,,,-99.99,,2013-06-11 03:32:00,
2013-06-10 21:42:00,72.0,27.0,-100.00,SW,230,14.0,18.0,18,-99.99,,,-99.99,,2013-06-11 03:42:00,
2013-06-10 21:53:00,72.0,27.0,-100.00,WSW,250,13.0,17.0,18,-99.99,,,-99.99,,2013-06-11 03:53:00,
2013-06-10 22:02:00,72.0,27.0,-100.00,WSW,250,12.0,18.0,18,-99.99,,,-99.99,,2013-06-11 04:02:00,
2013-06-10 22:12:00,71.0,26.0,-100.00,WSW,245,11.0,13.0,18,-99.99,,,-99.99,,2013-06-11 04:12:00,
2013-06-10 22:22:00,71.0,26.0,-100.00,WSW,255,7.0,12.0,18,-99.99,,,-99.99,,2013-06-11 04:22:00,
2013-06-10 22:33:00,70.0,25.0,-100.00,SW,230,11.0,14.0,18,-99.99,,,-99.99,,2013-06-11 04:33:00,
2013-06-10 22:42:00,69.0,25.0,-100.00,West,270,4.0,11.0,18,-99.99,,,-99.99,,2013-06-11 04:42:00,
2013-06-10 22:52:00,69.0,25.0,-100.00,WSW,240,13.0,16.0,18,-99.99,,,-99.99,,2013-06-11 04:52:00,
2013-06-10 23:02:00,69.0,25.0,-100.00,WSW,245,11.0,17.0,18,-99.99,,,-99.99,,2013-06-11 05:02:00,
2013-06-10 23:11:00,69.0,25.0,-100.00,WSW,240,11.0,14.0,18,-99.99,,,-99.99,,2013-06-11 05:11:00,
2013-06-10 23:22:00,71.0,25.0,-100.00,WSW,245,11.0,14.0,18,-99.99,,,-99.99,,2013-06-11 05:22:00,
2013-06-10 23:32:00,72.0,24.0,-100.00,WSW,240,12.0,17.0,16,-99.99,,,-99.99,,2013-06-11 05:32:00,
2013-06-10 23:41:00,72.0,24.0,-100.00,WSW,245,11.0,16.0,16,-99.99,,,-99.99,,2013-06-11 05:41:00,
2013-06-10 23:52:00,70.0,22.0,-100.00,WSW,240,14.0,15.0,16,-99.99,,,-99.99,,2013-06-11 05:52:00,